sat.trackr.live / text

‹ back to catalog

STARLINK-35114

NORAD 65502 · 2025-198L

PAYLOAD ACTIVE UNKNOWN

§ Identity

Operator
Country
US
Launch date
2025-09-05
Launch site
AFETR
Launch vehicle
Mass (kg)
RCS (m²)

Purposes: comms

External: N2YO · Heavens-Above · Gunter

§ Orbital elements

Epoch: 2026-05-24T17:51:06.730560Z

Period
93.85 min
Inclination
53.1589°
Eccentricity
0.0001414
Mean motion
15.34399225 rev/d
Perigee alt
461.7 km
Apogee alt
463.7 km
Semi-major
6,840.8 km
B*
7.4219e-4
RAAN
277.0764°
Arg perigee
52.4063°
Mean anomaly
307.7068°
Rev number
4,027

§ Raw data

STARLINK-351141 65502U 25198L   26144.74382790  .00024782  00000+0  74219-3 0  99982 65502  53.1589 277.0764 0001414  52.4063 307.7068 15.34399225 40271

JSON: /api/v1/satellites/65502 · /tle

For live sub-satellite position, see the globe view (requires WebGL).

§ Visibility from observer

Set your observer location to see the next 7 days of passes ≥ 10°. The values pass through the URL so the page stays shareable.

No JS? Fill the form by hand. The geolocation button needs JavaScript.